• In Hungary
  • List of Countries
  • For 7 days
  • Water Temperature
  • Satellite Maps
  • Weather Map
  • News
  • Weather Widgets
  • user-avatar
    Login

    Hourly Weather Keren

    Today, 15 August, Wednesday

    Time Temperature Precipitation Wind Pressure Humidity
    00:00 +26°C° 1.2 mm 2 mps 644 mmHg 63%
    01:00 +25°C° 0.4 mm 2 mps 644 mmHg 65%
    02:00 +25°C° 0.4 mm 2 mps 644 mmHg 67%
    03:00 +25°C° 0 mm 1 mps 643 mmHg 69%
    04:00 +24°C° 0.4 mm 2 mps 643 mmHg 70%
    05:00 +24°C° 0.4 mm 2 mps 643 mmHg 70%
    06:00 +24°C° 0.4 mm 2 mps 643 mmHg 70%
    07:00 +24°C° 0.5 mm 2 mps 644 mmHg 67%
    08:00 +25°C° 0.5 mm 2 mps 644 mmHg 65%
    09:00 +26°C° 0 mm 2 mps 644 mmHg 58%
    10:00 +27°C° 1.3 mm 2 mps 644 mmHg 56%
    11:00 +27°C° 1.3 mm 3 mps 645 mmHg 53%
    12:00 +28°C° 1.3 mm 3 mps 645 mmHg 51%
    13:00 +28°C° 2 mm 3 mps 645 mmHg 52%
    14:00 +28°C° 2 mm 3 mps 644 mmHg 53%
    15:00 +28°C° 0 mm 3 mps 644 mmHg 51%
    16:00 +28°C° 1.5 mm 2 mps 644 mmHg 53%
    17:00 +27°C° 1.5 mm 2 mps 644 mmHg 55%
    18:00 +27°C° 1.5 mm 2 mps 644 mmHg 56%
    19:00 +26°C° 2.6 mm 2 mps 644 mmHg 60%
    20:00 +25°C° 2.6 mm 2 mps 644 mmHg 63%
    21:00 +25°C° 2.6 mm 2 mps 644 mmHg 66%
    22:00 +24°C° 2.4 mm 2 mps 644 mmHg 68%
    23:00 +24°C° 2.4 mm 2 mps 644 mmHg 70%

    Tomorrow, 16 August, Thursday

    Time Temperature Precipitation Wind Pressure Humidity
    00:00 +24°C° 2.4 mm 2 mps 644 mmHg 72%
    01:00 +23°C° 2.1 mm 2 mps 644 mmHg 72%
    02:00 +23°C° 2.1 mm 2 mps 644 mmHg 73%
    03:00 +23°C° 2.1 mm 2 mps 644 mmHg 73%
    04:00 +23°C° 0.4 mm 2 mps 644 mmHg 73%
    05:00 +23°C° 0.4 mm 2 mps 644 mmHg 72%
    06:00 +23°C° 0.4 mm 2 mps 644 mmHg 72%
    07:00 +24°C° 0.2 mm 2 mps 644 mmHg 69%
    08:00 +24°C° 0.2 mm 2 mps 644 mmHg 66%
    09:00 +24°C° 0.2 mm 2 mps 644 mmHg 63%
    10:00 +25°C° 0.6 mm 2 mps 645 mmHg 59%
    11:00 +26°C° 0.6 mm 2 mps 645 mmHg 56%
    12:00 +27°C° 0.6 mm 2 mps 645 mmHg 52%
    13:00 +27°C° 0.5 mm 2 mps 645 mmHg 51%
    14:00 +28°C° 0.5 mm 2 mps 645 mmHg 49%
    15:00 +28°C° 0.5 mm 3 mps 644 mmHg 48%
    16:00 +28°C° 0.8 mm 2 mps 644 mmHg 50%
    17:00 +27°C° 0.8 mm 2 mps 644 mmHg 51%
    18:00 +27°C° 0.8 mm 2 mps 644 mmHg 53%
    19:00 +27°C° 0.4 mm 2 mps 644 mmHg 56%
    20:00 +26°C° 0.4 mm 2 mps 644 mmHg 58%
    21:00 +26°C° 0.4 mm 1 mps 644 mmHg 61%
    22:00 +25°C° 0.2 mm 1 mps 644 mmHg 63%
    23:00 +25°C° 0.2 mm 1 mps 645 mmHg 64%

    Day after tomorrow, 17 August, Friday

    Time Temperature Precipitation Wind Pressure Humidity
    00:00 +25°C° 0.2 mm 2 mps 645 mmHg 65%
    01:00 +24°C° 2.2 mm 2 mps 644 mmHg 68%
    02:00 +24°C° 2.2 mm 2 mps 644 mmHg 70%
    03:00 +23°C° 2.2 mm 2 mps 643 mmHg 72%
    04:00 +22°C° 2.2 mm 3 mps 643 mmHg 74%
    05:00 +21°C° 2.2 mm 3 mps 643 mmHg 75%
    06:00 +21°C° 2.2 mm 3 mps 643 mmHg 77%
    07:00 +22°C° 0.1 mm 3 mps 644 mmHg 73%
    08:00 +23°C° 0.1 mm 2 mps 644 mmHg 69%
    09:00 +24°C° 0.1 mm 2 mps 645 mmHg 65%
    10:00 +25°C° 0 mm 2 mps 645 mmHg 61%
    11:00 +26°C° 0 mm 2 mps 645 mmHg 56%
    12:00 +27°C° 0 mm 3 mps 645 mmHg 52%
    13:00 +28°C° 0.1 mm 3 mps 645 mmHg 51%
    14:00 +28°C° 0.1 mm 3 mps 644 mmHg 49%
    15:00 +29°C° 0.1 mm 3 mps 644 mmHg 48%
    16:00 +28°C° 0.6 mm 3 mps 644 mmHg 49%
    17:00 +28°C° 0.6 mm 3 mps 643 mmHg 50%
    18:00 +28°C° 0.6 mm 3 mps 643 mmHg 52%
    19:00 +27°C° 0.8 mm 3 mps 644 mmHg 56%
    20:00 +26°C° 0.8 mm 2 mps 644 mmHg 60%
    21:00 +25°C° 0.8 mm 2 mps 644 mmHg 63%
    22:00 +25°C° 0.5 mm 2 mps 644 mmHg 66%
    23:00 +25°C° 0.5 mm 2 mps 644 mmHg 68%

    18 August, Saturday

    Time Temperature Precipitation Wind Pressure Humidity
    00:00 +24°C° 0.5 mm 2 mps 644 mmHg 70%
    01:00 +24°C° 0 mm 2 mps 643 mmHg 71%
    02:00 +24°C° 0 mm 2 mps 643 mmHg 73%
    03:00 +23°C° 0 mm 2 mps 642 mmHg 74%
    04:00 +23°C° 0.1 mm 2 mps 642 mmHg 75%
    05:00 +23°C° 0.1 mm 2 mps 642 mmHg 76%
    06:00 +23°C° 0.1 mm 2 mps 642 mmHg 77%
    07:00 +23°C° 0.1 mm 2 mps 643 mmHg 73%
    08:00 +24°C° 0.1 mm 2 mps 644 mmHg 69%
    09:00 +25°C° 0.1 mm 2 mps 644 mmHg 65%
    10:00 +26°C° 0.5 mm 2 mps 644 mmHg 61%
    11:00 +27°C° 0.5 mm 2 mps 644 mmHg 57%
    12:00 +28°C° 0.5 mm 2 mps 644 mmHg 53%
    13:00 +28°C° 0.9 mm 3 mps 644 mmHg 51%
    14:00 +29°C° 0.9 mm 3 mps 643 mmHg 49%
    15:00 +29°C° 0.9 mm 3 mps 643 mmHg 46%
    16:00 +29°C° 1.2 mm 3 mps 643 mmHg 48%
    17:00 +29°C° 1.2 mm 3 mps 643 mmHg 49%
    18:00 +28°C° 1.2 mm 3 mps 643 mmHg 51%
    19:00 +28°C° 1.1 mm 2 mps 643 mmHg 54%
    20:00 +27°C° 1.1 mm 2 mps 643 mmHg 57%
    21:00 +26°C° 1.1 mm 2 mps 644 mmHg 60%
    22:00 +26°C° 0.5 mm 2 mps 644 mmHg 62%
    23:00 +26°C° 0.5 mm 2 mps 644 mmHg 65%

    19 August, Sunday

    Time Temperature Precipitation Wind Pressure Humidity
    00:00 +25°C° 0.5 mm 2 mps 644 mmHg 67%
    01:00 +25°C° 0.2 mm 2 mps 643 mmHg 69%
    02:00 +24°C° 0.2 mm 2 mps 643 mmHg 71%
    03:00 +24°C° 0.2 mm 2 mps 642 mmHg 73%
    04:00 +24°C° 0.2 mm 2 mps 642 mmHg 74%
    05:00 +24°C° 0.2 mm 2 mps 642 mmHg 75%
    06:00 +23°C° 0.2 mm 2 mps 642 mmHg 75%
    07:00 +24°C° 0.4 mm 2 mps 643 mmHg 71%
    08:00 +25°C° 0.4 mm 2 mps 644 mmHg 67%
    09:00 +26°C° 0.4 mm 3 mps 644 mmHg 63%
    10:00 +26°C° 0.1 mm 3 mps 644 mmHg 60%
    11:00 +27°C° 0.1 mm 3 mps 644 mmHg 57%
    12:00 +28°C° 0.1 mm 3 mps 644 mmHg 54%
    13:00 +28°C° 0.9 mm 3 mps 644 mmHg 52%
    14:00 +29°C° 0.9 mm 3 mps 643 mmHg 50%
    15:00 +29°C° 0.9 mm 3 mps 643 mmHg 47%
    16:00 +29°C° 0.4 mm 3 mps 643 mmHg 48%
    17:00 +29°C° 0.4 mm 3 mps 643 mmHg 48%
    18:00 +29°C° 0.4 mm 3 mps 643 mmHg 48%
    19:00 +28°C° 0.1 mm 3 mps 643 mmHg 52%
    20:00 +28°C° 0.1 mm 3 mps 644 mmHg 55%
    21:00 +27°C° 0.1 mm 2 mps 644 mmHg 59%
    22:00 +27°C° 0 mm 2 mps 644 mmHg 62%
    23:00 +26°C° 0 mm 2 mps 644 mmHg 65%

    20 August, Monday

    Time Temperature Precipitation Wind Pressure Humidity
    00:00 +26°C° 0 mm 2 mps 644 mmHg 68%
    01:00 +25°C° 0 mm 2 mps 643 mmHg 71%
    02:00 +25°C° 0 mm 3 mps 643 mmHg 73%
    03:00 +24°C° 0 mm 3 mps 642 mmHg 76%
    04:00 +24°C° 0.1 mm 3 mps 643 mmHg 76%
    05:00 +24°C° 0.1 mm 3 mps 643 mmHg 76%
    06:00 +22°C° 0.1 mm 3 mps 643 mmHg 77%
    07:00 +24°C° 0.2 mm 3 mps 644 mmHg 74%
    08:00 +24°C° 0.2 mm 3 mps 644 mmHg 72%
    09:00 +24°C° 0.2 mm 3 mps 645 mmHg 70%
    10:00 +25°C° 0.1 mm 3 mps 645 mmHg 65%
    11:00 +26°C° 0.1 mm 3 mps 645 mmHg 61%
    12:00 +27°C° 0.1 mm 3 mps 645 mmHg 57%
    13:00 +28°C° 0.4 mm 3 mps 645 mmHg 54%
    14:00 +28°C° 0.4 mm 3 mps 644 mmHg 52%
    15:00 +29°C° 0.4 mm 3 mps 644 mmHg 49%
    16:00 +29°C° 0.4 mm 3 mps 644 mmHg 49%
    17:00 +29°C° 0.4 mm 3 mps 644 mmHg 49%
    18:00 +29°C° 0.4 mm 3 mps 644 mmHg 49%
    19:00 +28°C° 0 mm 3 mps 644 mmHg 52%
    20:00 +28°C° 0 mm 2 mps 645 mmHg 55%
    21:00 +27°C° 0 mm 2 mps 645 mmHg 58%
    22:00 +27°C° 0 mm 2 mps 645 mmHg 60%
    23:00 +26°C° 0 mm 2 mps 645 mmHg 62%
    Show more